Time,TemperatureF,DewpointF,PressureIn,WindDirection,WindDirectionDegrees,WindSpeedMPH,WindSpeedGustMPH,Humidity,HourlyPrecipIn,Conditions,Clouds,dailyrainin,SolarRadiationWatts/m^2,SoftwareType,DateUTC
2013-04-09 00:11:00,57.6,44.0,29.97,South,170,4.0,-999.0,60,-99.99,,,0.00,0,weatherlink.com 1.10,2013-04-09 04:11:00,
2013-04-09 00:27:00,57.2,44.0,29.97,SSW,202,2.0,-999.0,62,-99.99,,,0.00,0,weatherlink.com 1.10,2013-04-09 04:27:00,
2013-04-09 00:41:00,56.9,44.0,29.97,SSW,192,1.0,-999.0,63,-99.99,,,0.00,0,weatherlink.com 1.10,2013-04-09 04:41:00,
2013-04-09 00:56:00,56.8,45.0,29.97,SSW,202,1.0,-999.0,66,-99.99,,,0.00,0,weatherlink.com 1.10,2013-04-09 04:56:00,
2013-04-09 01:12:00,56.3,46.0,29.96,SSW,213,3.0,-999.0,68,-99.99,,,0.00,0,weatherlink.com 1.10,2013-04-09 05:12:00,
2013-04-09 01:27:00,56.1,46.0,29.96,SSE,164,4.0,-999.0,70,-99.99,,,0.00,0,weatherlink.com 1.10,2013-04-09 05:27:00,
2013-04-09 01:42:00,55.7,47.0,29.94,SSW,208,5.0,-999.0,73,-99.99,,,0.00,0,weatherlink.com 1.10,2013-04-09 05:42:00,
2013-04-09 01:57:00,55.3,47.0,29.94,SSW,210,1.0,-999.0,73,-99.99,,,0.00,0,weatherlink.com 1.10,2013-04-09 05:57:00,
2013-04-09 02:12:00,55.1,47.0,29.93,SSW,194,2.0,-999.0,73,-99.99,,,0.00,0,weatherlink.com 1.10,2013-04-09 06:12:00,
2013-04-09 02:27:00,55.0,47.0,29.93,SW,228,2.0,-999.0,75,-99.99,,,0.00,0,weatherlink.com 1.10,2013-04-09 06:27:00,
2013-04-09 02:42:00,54.8,47.0,29.92,South,188,5.0,-999.0,76,-99.99,,,0.00,0,weatherlink.com 1.10,2013-04-09 06:42:00,
2013-04-09 02:57:00,54.5,48.0,29.90,South,182,2.0,-999.0,78,-99.99,,,0.00,0,weatherlink.com 1.10,2013-04-09 06:57:00,
2013-04-09 03:12:00,54.0,48.0,29.90,South,185,0.0,-999.0,80,-99.99,,,0.00,0,weatherlink.com 1.10,2013-04-09 07:12:00,
2013-04-09 03:27:00,53.6,48.0,29.90,South,185,0.0,-999.0,81,-99.99,,,0.00,0,weatherlink.com 1.10,2013-04-09 07:27:00,
2013-04-09 03:42:00,53.2,48.0,29.90,South,185,0.0,-999.0,82,-99.99,,,0.00,0,weatherlink.com 1.10,2013-04-09 07:42:00,
2013-04-09 03:57:00,53.0,48.0,29.89,South,185,0.0,-999.0,83,-99.99,,,0.00,0,weatherlink.com 1.10,2013-04-09 07:57:00,
2013-04-09 04:12:00,52.5,48.0,29.89,South,185,0.0,-999.0,84,-99.99,,,0.00,0,weatherlink.com 1.10,2013-04-09 08:12:00,
2013-04-09 04:27:00,52.0,48.0,29.89,South,185,0.0,-999.0,85,-99.99,,,0.00,0,weatherlink.com 1.10,2013-04-09 08:27:00,
2013-04-09 04:42:00,51.8,48.0,29.89,South,185,0.0,-999.0,87,-99.99,,,0.00,0,weatherlink.com 1.10,2013-04-09 08:42:00,
2013-04-09 04:57:00,51.5,48.0,29.89,South,185,0.0,-999.0,87,-99.99,,,0.00,0,weatherlink.com 1.10,2013-04-09 08:57:00,
2013-04-09 05:12:00,51.3,48.0,29.89,South,185,0.0,-999.0,88,-99.99,,,0.00,0,weatherlink.com 1.10,2013-04-09 09:12:00,
2013-04-09 05:27:00,51.2,48.0,29.89,South,185,0.0,-999.0,89,-99.99,,,0.00,0,weatherlink.com 1.10,2013-04-09 09:27:00,
2013-04-09 05:42:00,51.3,48.0,29.89,SSW,200,0.0,-999.0,89,-99.99,,,0.00,0,weatherlink.com 1.10,2013-04-09 09:42:00,
2013-04-09 05:57:00,51.4,48.0,29.90,SSW,205,0.0,-999.0,89,-99.99,,,0.00,0,weatherlink.com 1.10,2013-04-09 09:57:00,
2013-04-09 06:12:00,51.5,48.0,29.89,South,169,4.0,-999.0,89,-99.99,,,0.00,0,weatherlink.com 1.10,2013-04-09 10:12:00,
2013-04-09 06:27:00,51.5,48.0,29.90,South,191,3.0,-999.0,89,-99.99,,,0.00,0,weatherlink.com 1.10,2013-04-09 10:27:00,
2013-04-09 06:42:00,51.1,48.0,29.90,South,179,1.0,-999.0,89,-99.99,,,0.00,14,weatherlink.com 1.10,2013-04-09 10:42:00,
2013-04-09 06:57:00,51.0,48.0,29.90,SSW,193,0.0,-999.0,90,-99.99,,,0.00,37,weatherlink.com 1.10,2013-04-09 10:57:00,
2013-04-09 07:12:00,51.4,49.0,29.90,South,180,1.0,-999.0,90,-99.99,,,0.00,67,weatherlink.com 1.10,2013-04-09 11:12:00,
2013-04-09 07:27:00,51.9,49.0,29.90,South,171,0.0,-999.0,90,-99.99,,,0.00,93,weatherlink.com 1.10,2013-04-09 11:27:00,
2013-04-09 07:42:00,52.4,49.0,29.90,SSW,212,4.0,-999.0,88,-99.99,,,0.00,105,weatherlink.com 1.10,2013-04-09 11:42:00,
2013-04-09 07:57:00,53.5,50.0,29.89,South,180,2.0,-999.0,87,-99.99,,,0.00,158,weatherlink.com 1.10,2013-04-09 11:57:00,
2013-04-09 08:12:00,54.9,50.0,29.89,South,186,0.0,-999.0,84,-99.99,,,0.00,243,weatherlink.com 1.10,2013-04-09 12:12:00,
2013-04-09 08:27:00,56.9,51.0,29.89,SSE,167,4.0,-999.0,81,-99.99,,,0.00,311,weatherlink.com 1.10,2013-04-09 12:27:00,
2013-04-09 08:42:00,60.1,52.0,29.88,South,181,1.0,-999.0,74,-99.99,,,0.00,355,weatherlink.com 1.10,2013-04-09 12:42:00,
2013-04-09 08:57:00,62.4,52.0,29.89,SSW,204,3.0,-999.0,69,-99.99,,,0.00,408,weatherlink.com 1.10,2013-04-09 12:57:00,
2013-04-09 09:12:00,64.4,52.0,29.88,WSW,250,1.0,-999.0,65,-99.99,,,0.00,455,weatherlink.com 1.10,2013-04-09 13:12:00,
2013-04-09 09:27:00,66.7,53.0,29.88,SW,219,3.0,-999.0,62,-99.99,,,0.00,504,weatherlink.com 1.10,2013-04-09 13:27:00,
2013-04-09 09:42:00,69.8,51.0,29.88,NW,306,3.0,-999.0,51,-99.99,,,0.00,603,weatherlink.com 1.10,2013-04-09 13:42:00,
2013-04-09 09:57:00,70.9,51.0,29.88,WSW,247,3.0,-999.0,50,-99.99,,,0.00,420,weatherlink.com 1.10,2013-04-09 13:57:00,
2013-04-09 10:12:00,71.0,51.0,29.88,NNW,338,3.0,-999.0,49,-99.99,,,0.00,538,weatherlink.com 1.10,2013-04-09 14:12:00,
2013-04-09 10:27:00,70.8,50.0,29.89,NNW,344,5.0,-999.0,48,-99.99,,,0.00,756,weatherlink.com 1.10,2013-04-09 14:27:00,
2013-04-09 10:43:00,71.6,50.0,29.89,NNW,343,5.0,-999.0,47,-99.99,,,0.00,707,weatherlink.com 1.10,2013-04-09 14:43:00,
2013-04-09 10:57:00,72.4,49.0,29.90,North,5,5.0,-999.0,43,-99.99,,,0.00,744,weatherlink.com 1.10,2013-04-09 14:57:00,
2013-04-09 11:12:00,72.8,48.0,29.90,NNW,338,10.0,-999.0,42,-99.99,,,0.00,680,weatherlink.com 1.10,2013-04-09 15:12:00,
2013-04-09 11:27:00,73.2,48.0,29.90,NW,308,5.0,-999.0,41,-99.99,,,0.00,791,weatherlink.com 1.10,2013-04-09 15:27:00,
2013-04-09 11:42:00,73.5,48.0,29.90,NW,325,8.0,-999.0,40,-99.99,,,0.00,788,weatherlink.com 1.10,2013-04-09 15:42:00,
2013-04-09 11:57:00,73.3,47.0,29.91,WNW,302,9.0,-999.0,40,-99.99,,,0.00,826,weatherlink.com 1.10,2013-04-09 15:57:00,
2013-04-09 12:12:00,73.3,47.0,29.90,NW,320,6.0,-999.0,40,-99.99,,,0.00,826,weatherlink.com 1.10,2013-04-09 16:12:00,
2013-04-09 12:27:00,72.9,46.0,29.91,NNW,345,6.0,-999.0,38,-99.99,,,0.00,847,weatherlink.com 1.10,2013-04-09 16:27:00,
2013-04-09 12:42:00,73.0,44.0,29.91,NW,316,4.0,-999.0,36,-99.99,,,0.00,860,weatherlink.com 1.10,2013-04-09 16:42:00,
2013-04-09 12:57:00,73.6,45.0,29.91,NNW,346,4.0,-999.0,36,-99.99,,,0.00,840,weatherlink.com 1.10,2013-04-09 16:57:00,
2013-04-09 13:12:00,73.0,44.0,29.91,North,10,6.0,-999.0,36,-99.99,,,0.00,784,weatherlink.com 1.10,2013-04-09 17:12:00,
2013-04-09 13:27:00,73.1,44.0,29.91,WSW,254,11.0,-999.0,35,-99.99,,,0.00,856,weatherlink.com 1.10,2013-04-09 17:27:00,
2013-04-09 13:42:00,73.1,45.0,29.92,NW,313,4.0,-999.0,36,-99.99,,,0.00,846,weatherlink.com 1.10,2013-04-09 17:42:00,
2013-04-09 13:57:00,73.7,44.0,29.92,West,267,10.0,-999.0,35,-99.99,,,0.00,830,weatherlink.com 1.10,2013-04-09 17:57:00,
2013-04-09 14:12:00,73.8,44.0,29.92,WSW,252,2.0,-999.0,34,-99.99,,,0.00,802,weatherlink.com 1.10,2013-04-09 18:12:00,
2013-04-09 14:27:00,73.7,42.0,29.92,WSW,237,11.0,-999.0,32,-99.99,,,0.00,805,weatherlink.com 1.10,2013-04-09 18:27:00,
2013-04-09 14:42:00,73.6,41.0,29.92,NW,309,8.0,-999.0,31,-99.99,,,0.00,775,weatherlink.com 1.10,2013-04-09 18:42:00,
2013-04-09 14:57:00,73.8,40.0,29.92,West,269,14.0,-999.0,30,-99.99,,,0.00,780,weatherlink.com 1.10,2013-04-09 18:57:00,
2013-04-09 15:12:00,73.8,41.0,29.91,NW,317,13.0,-999.0,31,-99.99,,,0.00,650,weatherlink.com 1.10,2013-04-09 19:12:00,
2013-04-09 15:27:00,74.1,42.0,29.92,North,360,8.0,-999.0,31,-99.99,,,0.00,701,weatherlink.com 1.10,2013-04-09 19:27:00,
2013-04-09 15:42:00,74.2,41.0,29.92,NW,313,4.0,-999.0,30,-99.99,,,0.00,519,weatherlink.com 1.10,2013-04-09 19:42:00,
2013-04-09 15:57:00,72.9,40.0,29.92,NW,316,5.0,-999.0,31,-99.99,,,0.00,367,weatherlink.com 1.10,2013-04-09 19:57:00,
2013-04-09 16:12:00,73.7,40.0,29.91,WNW,296,2.0,-999.0,30,-99.99,,,0.00,582,weatherlink.com 1.10,2013-04-09 20:12:00,
2013-04-09 16:27:00,73.8,40.0,29.91,NW,325,2.0,-999.0,30,-99.99,,,0.00,536,weatherlink.com 1.10,2013-04-09 20:27:00,
2013-04-09 16:42:00,73.9,41.0,29.90,North,360,6.0,-999.0,30,-99.99,,,0.00,483,weatherlink.com 1.10,2013-04-09 20:42:00,
2013-04-09 16:57:00,74.7,40.0,29.90,SW,231,10.0,-999.0,29,-99.99,,,0.00,434,weatherlink.com 1.10,2013-04-09 20:57:00,
2013-04-09 17:27:00,73.7,40.0,29.92,NNW,340,2.0,-999.0,30,-99.99,,,0.00,332,weatherlink.com 1.10,2013-04-09 21:27:00,
2013-04-09 17:42:00,74.2,41.0,29.92,NW,319,3.0,-999.0,30,-99.99,,,0.00,288,weatherlink.com 1.10,2013-04-09 21:42:00,
2013-04-09 17:57:00,74.0,41.0,29.92,NW,318,3.0,-999.0,30,-99.99,,,0.00,234,weatherlink.com 1.10,2013-04-09 21:57:00,
2013-04-09 18:12:00,73.6,40.0,29.92,NE,38,6.0,-999.0,30,-99.99,,,0.00,151,weatherlink.com 1.10,2013-04-09 22:12:00,
2013-04-09 18:27:00,73.3,40.0,29.92,NW,304,3.0,-999.0,30,-99.99,,,0.00,53,weatherlink.com 1.10,2013-04-09 22:27:00,
2013-04-09 18:42:00,72.4,40.0,29.93,NW,321,0.0,-999.0,31,-99.99,,,0.00,26,weatherlink.com 1.10,2013-04-09 22:42:00,
2013-04-09 18:57:00,71.8,39.0,29.92,NW,325,0.0,-999.0,31,-99.99,,,0.00,35,weatherlink.com 1.10,2013-04-09 22:57:00,
2013-04-09 19:12:00,71.2,41.0,29.92,NW,325,0.0,-999.0,33,-99.99,,,0.00,28,weatherlink.com 1.10,2013-04-09 23:12:00,
2013-04-09 19:27:00,70.4,41.0,29.92,NW,325,0.0,-999.0,35,-99.99,,,0.00,0,weatherlink.com 1.10,2013-04-09 23:27:00,
2013-04-09 19:42:00,68.8,41.0,29.93,NW,325,0.0,-999.0,37,-99.99,,,0.00,0,weatherlink.com 1.10,2013-04-09 23:42:00,
2013-04-09 19:57:00,66.4,42.0,29.94,NW,325,1.0,-999.0,42,-99.99,,,0.00,0,weatherlink.com 1.10,2013-04-09 23:57:00,
2013-04-09 20:12:00,65.6,44.0,29.94,NNE,17,2.0,-999.0,45,-99.99,,,0.00,0,weatherlink.com 1.10,2013-04-10 00:12:00,
2013-04-09 20:27:00,64.9,44.0,29.93,North,5,2.0,-999.0,47,-99.99,,,0.00,0,weatherlink.com 1.10,2013-04-10 00:27:00,
2013-04-09 20:42:00,64.4,44.0,29.94,North,5,2.0,-999.0,48,-99.99,,,0.00,0,weatherlink.com 1.10,2013-04-10 00:42:00,
2013-04-09 20:57:00,64.0,44.0,29.94,NNE,27,0.0,-999.0,48,-99.99,,,0.00,0,weatherlink.com 1.10,2013-04-10 00:57:00,
2013-04-09 21:12:00,63.2,44.0,29.95,NNE,21,1.0,-999.0,50,-99.99,,,0.00,0,weatherlink.com 1.10,2013-04-10 01:12:00,
2013-04-09 21:27:00,62.2,44.0,29.95,NNE,21,0.0,-999.0,52,-99.99,,,0.00,0,weatherlink.com 1.10,2013-04-10 01:27:00,
2013-04-09 21:42:00,61.1,45.0,29.95,NNE,21,0.0,-999.0,55,-99.99,,,0.00,0,weatherlink.com 1.10,2013-04-10 01:42:00,
2013-04-09 21:57:00,59.7,45.0,29.95,NNE,21,0.0,-999.0,58,-99.99,,,0.00,0,weatherlink.com 1.10,2013-04-10 01:57:00,
2013-04-09 22:12:00,58.4,44.0,29.93,NNE,21,0.0,-999.0,60,-99.99,,,0.00,0,weatherlink.com 1.10,2013-04-10 02:12:00,
2013-04-09 22:27:00,57.2,45.0,29.92,NNE,21,0.0,-999.0,63,-99.99,,,0.00,0,weatherlink.com 1.10,2013-04-10 02:27:00,
2013-04-09 22:42:00,56.5,44.0,29.91,NNE,21,2.0,-999.0,64,-99.99,,,0.00,0,weatherlink.com 1.10,2013-04-10 02:42:00,
2013-04-09 22:57:00,55.9,44.0,29.90,NNE,21,0.0,-999.0,65,-99.99,,,0.00,0,weatherlink.com 1.10,2013-04-10 02:57:00,
2013-04-09 23:12:00,55.4,45.0,29.90,NNE,21,0.0,-999.0,68,-99.99,,,0.00,0,weatherlink.com 1.10,2013-04-10 03:12:00,
2013-04-09 23:27:00,55.1,45.0,29.89,NNE,21,0.0,-999.0,68,-99.99,,,0.00,0,weatherlink.com 1.10,2013-04-10 03:27:00,
2013-04-09 23:42:00,54.8,45.0,29.89,NNE,21,0.0,-999.0,69,-99.99,,,0.00,0,weatherlink.com 1.10,2013-04-10 03:42:00,
2013-04-09 23:57:00,54.3,45.0,29.89,NNE,21,0.0,-999.0,70,-99.99,,,0.00,0,weatherlink.com 1.10,2013-04-10 03:57:00,